TimeMST,TemperatureF,Dew PointF,Humidity,Sea Level PressureIn,VisibilityMPH,Wind Direction,Wind SpeedMPH,Gust SpeedMPH,PrecipitationIn,Events,Conditions,WindDirDegrees,DateUTC
12:53 AM,63.0,28.0,27,29.81,10.0,South,5.8,-,N/A,,Clear,170,2013-03-21 07:53:00
1:53 AM,60.1,28.0,30,29.78,10.0,SE,6.9,-,N/A,,Clear,140,2013-03-21 08:53:00
2:53 AM,62.1,27.0,26,29.75,10.0,Calm,Calm,-,N/A,,Clear,0,2013-03-21 09:53:00
3:53 AM,59.0,28.0,31,29.76,10.0,Calm,Calm,-,N/A,,Clear,0,2013-03-21 10:53:00
4:53 AM,57.0,28.0,33,29.75,10.0,South,3.5,-,N/A,,Clear,190,2013-03-21 11:53:00
5:53 AM,57.9,28.0,32,29.76,10.0,ESE,3.5,-,N/A,,Clear,120,2013-03-21 12:53:00
6:53 AM,57.0,28.9,34,29.77,10.0,SSE,6.9,-,N/A,,Clear,150,2013-03-21 13:53:00
7:53 AM,60.1,30.0,32,29.78,10.0,SSE,4.6,-,N/A,,Clear,160,2013-03-21 14:53:00
8:53 AM,64.9,30.9,28,29.78,10.0,SSE,4.6,-,N/A,,Clear,150,2013-03-21 15:53:00
9:53 AM,70.0,30.0,23,29.77,10.0,Variable,4.6,-,N/A,,Clear,0,2013-03-21 16:53:00
10:53 AM,73.9,30.0,20,29.76,10.0,Calm,Calm,-,N/A,,Clear,0,2013-03-21 17:53:00
11:53 AM,77.0,28.9,17,29.75,10.0,Variable,5.8,-,N/A,,Clear,0,2013-03-21 18:53:00
12:53 PM,78.1,28.9,17,29.73,10.0,NNW,12.7,16.1,N/A,,Clear,330,2013-03-21 19:53:00
1:53 PM,79.0,30.0,17,29.71,10.0,North,11.5,-,N/A,,Clear,350,2013-03-21 20:53:00
2:53 PM,78.1,28.9,17,29.69,10.0,NW,8.1,-,N/A,,Clear,320,2013-03-21 21:53:00
3:53 PM,78.1,28.9,17,29.68,10.0,NW,10.4,-,N/A,,Clear,320,2013-03-21 22:53:00
4:53 PM,78.1,28.9,17,29.68,10.0,WNW,6.9,-,N/A,,Clear,300,2013-03-21 23:53:00
5:53 PM,75.9,30.0,19,29.69,10.0,WNW,6.9,-,N/A,,Clear,290,2013-03-22 00:53:00
6:53 PM,73.9,30.0,20,29.69,10.0,WNW,3.5,-,N/A,,Clear,290,2013-03-22 01:53:00
7:53 PM,72.0,30.9,22,29.70,10.0,West,3.5,-,N/A,,Clear,280,2013-03-22 02:53:00
8:53 PM,71.1,32.0,24,29.70,10.0,West,3.5,-,N/A,,Clear,260,2013-03-22 03:53:00
9:53 PM,69.8,32.0,25,29.80,10.0,SSE,3.5,-,N/A,,Clear,160,2013-03-22 04:53:00
10:53 PM,68.0,28.9,23,29.70,10.0,Calm,Calm,-,N/A,,Clear,0,2013-03-22 05:53:00
11:53 PM,66.9,30.0,25,29.68,10.0,SSE,4.6,-,N/A,,Clear,150,2013-03-22 06:53:00